Weather Roundup
Issued by NWS Corpus Christi, TX

Home | Current Version | Previous Version | Text Only | Print | Product List | Glossary On
Versions: 1 2 3 4 5 6 7 8 9 10 11 12 13 14 15 16 17 18 19 20 21 22 23 24 25 26 27 28 29 30 31 32 33 34 35 36 37 38 39 40 41 42 43 44 45 46 47 48 49 50
000
ASUS44 KCRP 182310
HRRCRP

SOUTH TEXAS REGIONAL WEATHER ROUNDUP
NATIONAL WEATHER SERVICE CORPUS CHRISTI TX
600 PM CDT THU SEP 18 2014


TXZ229>244-190000-
...CORPUS CHRISTI AREA OBSERVATIONS...

CITY           SKY/WX    TMP DP  RH WIND       PRES   REMARKS
CORPUS CHRISTI PTSUNNY   87  75  67 SE15      29.78R HX  96
NAS CORPUS CHR PTSUNNY   86  78  77 SE16      29.78S HX  98
ROCKPORT       PTSUNNY   88  75  65 SE14G21   29.79R HX  97
KINGSVILLE NAS PTSUNNY   90  79  70 SE14      29.77R HX 106
ALICE          MOSUNNY   91  76  61 SE14      29.76R HX 103
FALFURRIAS     MOSUNNY  N/A N/A N/A SE10      29.75R
$$

...VICTORIA AREA OBSERVATIONS...

CITY           SKY/WX    TMP DP  RH WIND       PRES   REMARKS
VICTORIA       CLOUDY    83  76  79 SE10      29.82R HX  91
BEEVILLE       FAIR      87  75  68 SE9       29.79R HX  96
PLEASANTON     PTSUNNY   92  67  43 E8        29.77S HX  95
SAN ANTONIO    PTSUNNY   92  68  45 SE9       29.80R HX  96
$$

...LAREDO AREA OBSERVATIONS...

CITY           SKY/WX    TMP DP  RH WIND       PRES   REMARKS
LAREDO         PTSUNNY   94  71  47 SE10      29.77R HX 101
COTULLA        PTSUNNY   94  67  41 SE9       29.75S HX  97
DEL RIO        SUNNY     91  70  49 E9        29.75F HX  96
MCALLEN        MOSUNNY   89  76  65 SE16      29.76R HX 100
HEBBRONVILLE     N/A     90  71  54 SE12      29.78S HX  96
$$

...OTHER TEXAS OBSERVATIONS...

CITY           SKY/WX    TMP DP  RH WIND       PRES   REMARKS
BROWNSVILLE    SUNNY     87  76  69 SE14      29.78R HX  97
HOUSTON        CLOUDY    78  74  87 SE12      29.86R
COL. STATION   LGT RAIN  77  75  93 NE10      29.85F
AUSTIN         CLOUDY    84  74  71 NE14      29.82R HX  91
WACO           CLOUDY    79  73  82 SE15      29.86R
FORT WORTH     CLOUDY    85  69  58 E9        29.85R
WICHITA FALLS  CLOUDY    79  70  74 SE5       29.88S
LUBBOCK        CLOUDY    71  65  81 SE12      29.96S
EL PASO        CLOUDY    70  66  87 N14       29.92S
$$

...MARINE OBSERVATIONS...

STATION/POSITION TIME  SKY/WX   TEMP    WIND        PRES    VSBY  WAVE   SWELL
                                AIR SEA DIR/SP/G                  HT/PER HT/PER
                 (UTC)          (F)     (DEG/KT/KT) (MB)    (MI)  (FT/S) (FT/S)
PORT ARANSAS     2300            85 86  140/ 17/ 18 1009.8R
BUOY 90 E PORT A 2300            85 85  170/  6/  6 1010.7R         2/ 4   2/ 4
BUOY 45 SE BAFFI 2300            84 85  150/ 12/ 12 1008.4R         3/ 5   2/11
BUOY 200 E PT IS 2300            84 86  150/  4/  6 1009.9S         2/ 4   2/ 5
BUOY 15 E GALVES 2300            77 83  120/  6/  8 1011.6R         1/ 4   2/ 4
$$


USA.gov is the U.S. government's official web portal to all federal, state and local government web resources and services.